Regional Weather Roundup
Issued by NWS Cleveland, OH

Home | Current Version | Previous Version | Graphics & Text | Print | Product List | Glossary On
Versions: 1 2 3 4 5 6 7 8 9 10 11 12 13 14 15 16 17 18 19 20 21 22 23 24 25 26 27 28 29 30 31 32 33 34 35 36 37 38 39 40 41 42 43 44 45 46 47 48 49 50
000
ASUS41 KCLE 301710
RWRCLE
OHIO REGIONAL WEATHER ROUNDUP
NATIONAL WEATHER SERVICE CLEVELAND, OH
100 PM EDT MON MAR 30 2015

NOTE: "FAIR" INDICATES FEW OR NO CLOUDS BELOW 12,000 FEET WITH NO
SIGNIFICANT WEATHER AND/OR OBSTRUCTIONS TO VISIBILITY.

OHZ001>008-015>018-024>027-034-035-043-044-301800-
   NORTHWEST OHIO

CITY           SKY/WX    TMP DP  RH WIND       PRES   REMARKS
DEFIANCE       SUNNY     52  26  36 W12G22    30.00F
FINDLAY        MOSUNNY   52  29  41 W20G25    30.00F
TOLEDO EXPRESS SUNNY     52  24  33 NW18G28   29.96F
TOLEDO EXEC    SUNNY     54  23  30 W24G32    29.97F
LIMA           MOSUNNY   51  33  50 W23       30.03S
$$

OHZ009>014-019>023-028>033-038-089-301800-
   NORTHEAST OHIO

CITY           SKY/WX    TMP DP  RH WIND       PRES   REMARKS
CLE-HOPKINS    MOSUNNY   49  27  42 W20G32    29.99F
CLE-LAKEFRONT  SUNNY     44  30  57 W17       29.96F
CUY CO. ARPT   MOSUNNY   48  32  53 W17G29    29.96S
LORAIN-ELYRIA  SUNNY     49  28  44 W16G28    29.97F
ASHTABULA      MOSUNNY   46  29  51 W13G24    29.92S
AKRON-CANTON   PTSUNNY   49  27  42 NW20G28   29.97S
WOOSTER        MOSUNNY   46  30  53 NW20G25   29.98F
MANSFIELD      MOSUNNY   47  29  49 W14G21    29.99F
YOUNGSTOWN     PTSUNNY   45  26  47 W13G28    29.93S
$$

OHZ042-051>053-060>062-070>072-077>081-301800-
  SOUTHWEST OHIO

CITY           SKY/WX    TMP DP  RH WIND       PRES   REMARKS
CINC-COVINGTON MOSUNNY   54  29  38 W16G25    30.12S
CINC-LUNKEN    MOSUNNY   55  31  39 W16G24    30.12F
HAMILTON       MOSUNNY   55  31  39 W17G23    30.12S
DAYTON         MOSUNNY   53  34  48 W16G25    30.08F
WRIGHT-PAT AFB MOSUNNY   54  32  43 W12G20    30.07F
DAYTON GENERAL PTSUNNY   53  30  41 W10G25    30.08S
WILMINGTON     PTSUNNY   50  31  48 W16       30.09S
$$

OHZ036-037-039>041-045>050-054>059-063>069-073>076-082>088-301800-
  CENTRAL AND SOUTHEAST OHIO

CITY           SKY/WX    TMP DP  RH WIND       PRES   REMARKS
COLUMBUS       MOSUNNY   50  29  44 NW18G32   30.05F
OSU AIRPORT    PTSUNNY   52  30  43 W22       30.04F
BOLTON FIELD   CLOUDY    50  32  50 W12G20    30.06F
RICKENBACK AFB PTSUNNY   51  31  46 W20G25    30.06F
NEWARK         MOSUNNY   49  27  42 W24G32    30.04S
MARION         MOSUNNY   50  28  42 NW14G25   30.02F
LANCASTER      PTSUNNY   51  30  44 W16G25    30.07S
ZANESVILLE     MOSUNNY   49  27  42 W18G24    30.03S
NEW PHILLY     CLOUDY    49  28  44 NW13G22   30.01S
$$


USA.gov is the U.S. government's official web portal to all federal, state and local government web resources and services.